[[[{"header":{"parameterUnit":"kt","parameterCategory":2,"dx":1,"dy":1,"la1":30.253999710083008,"la2":30.299108505249023,"lo1":-89.0895004272461,"lo2":-89.04439544677734,"nx":28,"ny":28,"refTime":"2022-10-26T21:00:00:Z","depth":0,"parameterNumber":1,"parameterNumberName":"U-component_of_WINDS"},"data":[1.9278,1.9279,1.9268,1.9264,1.9253,1.9249,1.9244,1.9236,1.9227,1.9221,1.9215,1.9204,1.919,1.9181,1.9175,1.917,1.9168,1.9177,1.917,1.9137,1.9131,1.9126,1.9125,1.9177,1.9177,1.9205,1.9205,1.9205,1.9259,1.9249,1.9243,1.923,1.9225,1.9209,1.9198,1.9195,1.9191,1.9179,1.9173,1.9166,1.9159,1.9141,1.9133,1.9133,1.9125,1.9132,1.9131,1.9129,1.9094,1.9093,1.9139,1.9139,1.9139,1.9139,1.9139,1.9139,1.9222,1.9223,1.9207,1.92,1.919,1.9182,1.918,1.9165,1.9159,1.9148,1.9135,1.913,1.9116,1.9099,1.909,1.9086,1.9076,1.908,1.908,1.9081,1.9085,1.9048,1.9084,1.9084,1.9084,1.9084,1.9084,0,1.9191,1.9181,1.9173,1.9163,1.9157,1.9148,1.9137,1.9136,1.911,1.9106,1.9099,1.9093,1.9081,1.9073,1.9062,1.9051,1.9033,1.903,1.9032,1.9038,1.9046,1.9042,1.8985,1.9028,1.9027,1.9027,1.9027,1.9026,1.9152,1.9153,1.913,1.9127,1.9117,1.9112,1.9106,1.9083,1.9078,1.9061,1.9062,1.9054,1.9046,1.9037,1.9018,1.9009,1.8999,1.9017,1.8998,1.9005,1.8999,1.8999,1.9,1.9021,1.9022,1.9022,1.9023,0,1.9132,1.911,1.9108,1.9084,1.9079,1.9082,1.9061,1.9061,1.9045,1.9042,1.904,1.9015,1.9009,1.8986,1.8974,1.8962,1.8969,1.896,1.8974,1.8971,1.8985,1.8984,1.9033,1.9038,1.8984,1.8985,1.8985,0,1.909,1.9092,1.9061,1.906,1.9063,1.9037,1.9041,1.9027,1.9013,1.901,1.8985,1.8983,1.8954,1.895,1.8933,1.8934,1.8931,1.8922,1.8917,1.8924,1.8925,1.892,1.8917,1.8906,1.8906,1.8906,1.8906,0,1.9059,1.9044,1.9044,1.9036,1.901,1.901,1.8999,1.8982,1.8976,1.8965,1.8961,1.8949,1.8943,1.8935,1.8913,1.8901,1.8913,1.8892,1.8904,1.8905,1.8907,1.8907,1.8957,1.8905,1.8905,1.8905,1.8905,0,1.9021,1.9009,1.9011,1.8989,1.8986,1.8985,1.8971,1.8966,1.8949,1.8938,1.8928,1.8908,1.8906,1.8887,1.8884,1.8875,1.887,1.8861,1.8862,1.8859,1.8837,1.8868,1.8918,1.8923,1.8859,1.8859,1.8858,0,1.8993,1.8988,1.8965,1.8967,1.8961,1.8933,1.8932,1.8918,1.8902,1.8896,1.8879,1.8871,1.8851,1.8845,1.8847,1.8829,1.8842,1.8827,1.8818,1.8818,1.8823,1.887,1.8882,1.891,1.8853,1.8854,1.8854,0,1.8967,1.8933,1.8934,1.8925,1.89,1.8894,1.8893,1.8879,1.8876,1.8861,1.886,1.8848,1.8833,1.8823,1.8804,1.8807,1.8833,1.879,1.8789,1.8799,1.8848,1.8861,1.8865,1.882,1.8821,1.8821,1.885,0,1.8915,1.8909,1.8912,1.889,1.8882,1.8881,1.8855,1.885,1.8833,1.8816,1.8813,1.8792,1.8777,1.8776,1.8758,1.8772,1.8766,1.8749,1.8727,1.8758,1.8766,1.877,1.8716,1.8715,1.8715,1.8714,0,0,1.8893,1.8882,1.8855,1.8852,1.8843,1.8812,1.8813,1.8801,1.8777,1.8772,1.8759,1.8739,1.8722,1.8721,1.8728,1.8722,1.8722,1.8711,1.8743,1.8747,1.875,1.876,1.8764,1.8713,1.8713,1.8712,1.8712,0,1.8868,1.8851,1.8852,1.8839,1.8817,1.8797,1.8798,1.877,1.8759,1.8754,1.8727,1.8722,1.8705,1.8691,1.8682,1.8711,1.8691,1.8709,1.8734,1.8737,1.8742,1.8745,1.8756,1.876,1.8711,1.8711,1.8711,0,1.8838,1.8817,1.8814,1.8791,1.8776,1.877,1.8741,1.8735,1.873,1.8694,1.8689,1.8674,1.8653,1.8654,1.8654,1.8642,1.8665,1.8652,1.8655,1.8654,1.8656,1.8661,1.8666,1.8605,1.8605,1.8605,0,0,1.882,1.8812,1.8781,1.8783,1.8776,1.8747,1.874,1.8721,1.8703,1.8695,1.8674,1.8657,1.8647,1.8641,1.863,1.8635,1.8628,1.864,1.8645,1.8649,1.865,1.8653,1.8659,1.8604,1.8604,1.8604,0,0,1.881,1.8774,1.8759,1.8759,1.8742,1.8711,1.8713,1.8695,1.8681,1.8678,1.8646,1.8639,1.864,1.8625,1.8616,1.8621,1.86,1.8601,1.863,1.8636,1.8641,1.8644,1.8581,0,0,0,0,0,1.8769,1.8778,1.8766,1.8761,1.8731,1.8718,1.8714,1.8687,1.8673,1.8677,1.8656,1.8634,1.8614,1.8605,1.8601,1.8611,1.8591,1.8594,1.8596,1.8634,1.864,1.8646,0,0,0,0,0,0,1.8767,1.8762,1.8765,1.8735,1.8727,1.8717,1.8688,1.8681,1.8672,1.8668,1.8639,1.8633,1.861,1.8605,1.8602,1.8612,1.8582,1.8592,1.8594,1.8596,1.8636,1.8641,1.8646,0,0,0,0,0,1.8766,1.8761,1.8719,1.8734,1.8728,1.8695,1.8687,1.8681,1.8674,1.8641,1.8635,1.8654,1.8611,1.8607,1.8603,1.8614,1.8584,1.8583,1.8594,1.8595,1.8596,1.8639,0,0,0,0,0,0,1.8764,1.8756,1.8717,1.8715,1.8728,1.8695,1.8689,1.8681,1.8647,1.8641,1.8655,1.8653,1.8612,1.8608,1.8605,1.8616,1.8586,1.8585,1.8584,1.8595,1.8596,1.8597,0,0,0,0,0,0,1.8758,1.8754,1.8716,1.871,1.8706,1.8695,1.869,1.8682,1.8647,1.8663,1.8659,1.8654,1.8617,1.861,1.8607,1.8596,1.8587,1.8586,1.8585,1.8585,1.8596,1.8596,0,0,0,0,0,0,1.8756,1.8752,1.871,1.8707,1.8704,1.867,1.8688,1.8658,1.8642,1.8665,1.864,1.8639,1.8618,1.8615,1.8608,1.8599,1.8597,1.8587,1.8586,1.8586,1.8585,0,0,0,0,0,0,0,1.8754,1.8785,1.8734,1.8705,1.8702,1.8688,1.8687,1.8687,1.8642,1.8641,1.864,1.8639,1.8592,1.8591,1.859,1.8601,0,0,1.8587,1.8586,0,0,0,0,0,0,0,0,1.8786,1.8785,1.8734,1.8734,1.8733,1.8688,1.8687,1.8687,1.8642,1.8641,1.864,1.864,1.8592,1.8591,1.859,0,0,0,0,0,0,0,0,0,0,0,0,0,0,0,1.8734,1.8734,0,1.8688,1.8687,1.8687,1.8642,1.8641,1.864,1.864,1.8592,1.8591,1.859,0,0,0,0,0,0,0,0,0,0,0,0,0,0,0,0,0,0,0,0,0,0,0,0,0,0,0,0,0,0,0,0,0,0,0,0,0,0,0,0,0,0,0,0,0,0,0,0,0,0,0,0,0,0,0,0,0,0,0,0,0,0,0,0,0,0,0,0,0]}],[{"header":{"parameterUnit":"kt","parameterCategory":2,"dx":1,"dy":1,"la1":30.253999710083008,"la2":30.299108505249023,"lo1":-89.0895004272461,"lo2":-89.04439544677734,"nx":28,"ny":28,"refTime":"2022-10-26T21:00:00:Z","depth":0,"parameterNumber":2,"parameterNumberName":"V-component_of_WINDS"},"data":[-6.1603,-6.1672,-6.1705,-6.1798,-6.1842,-6.1911,-6.1945,-6.1992,-6.2037,-6.2119,-6.2172,-6.2208,-6.2262,-6.2329,-6.2386,-6.2399,-6.2422,-6.2426,-6.2441,-6.2399,-6.2395,-6.2391,-6.2379,-6.243,-6.243,-6.2482,-6.2483,-6.2483,-6.1578,-6.1624,-6.1682,-6.1759,-6.1809,-6.1827,-6.1888,-6.1927,-6.1986,-6.204,-6.2092,-6.2166,-6.2226,-6.2278,-6.234,-6.2371,-6.2381,-6.2386,-6.2384,-6.2393,-6.2348,-6.2335,-6.2377,-6.2377,-6.2377,-6.2377,-6.2377,-6.2377,-6.1542,-6.1581,-6.1647,-6.1709,-6.1756,-6.1806,-6.1848,-6.1892,-6.1945,-6.2016,-6.2039,-6.2104,-6.2161,-6.2247,-6.2281,-6.2332,-6.233,-6.2344,-6.2348,-6.2351,-6.2353,-6.2281,-6.2342,-6.2342,-6.2342,-6.2342,-6.2342,0,-6.1525,-6.155,-6.1606,-6.1672,-6.1718,-6.177,-6.1823,-6.1849,-6.1904,-6.1945,-6.2007,-6.2047,-6.2125,-6.2184,-6.2246,-6.2279,-6.2296,-6.2299,-6.2309,-6.2302,-6.2289,-6.23,-6.223,-6.2297,-6.2296,-6.2296,-6.2296,-6.2296,-6.1494,-6.1533,-6.1614,-6.1649,-6.1685,-6.1738,-6.1777,-6.1822,-6.186,-6.1929,-6.1958,-6.2018,-6.2069,-6.2158,-6.2202,-6.2258,-6.2267,-6.2291,-6.2275,-6.2268,-6.2271,-6.227,-6.2275,-6.2293,-6.2293,-6.2293,-6.2294,0,-6.1473,-6.1523,-6.1592,-6.1666,-6.1686,-6.1724,-6.1786,-6.1824,-6.1859,-6.1916,-6.1931,-6.1986,-6.2043,-6.2084,-6.2154,-6.2173,-6.2237,-6.2242,-6.222,-6.2225,-6.2252,-6.225,-6.2328,-6.2342,-6.2287,-6.2287,-6.2288,0,-6.1466,-6.1513,-6.1584,-6.1621,-6.1677,-6.1721,-6.1774,-6.181,-6.1859,-6.1903,-6.193,-6.1971,-6.2016,-6.2062,-6.209,-6.2148,-6.216,-6.2179,-6.2186,-6.2178,-6.2176,-6.2197,-6.2196,-6.2196,-6.2196,-6.2195,-6.2195,0,-6.143,-6.1521,-6.1582,-6.161,-6.1691,-6.1718,-6.1751,-6.1805,-6.1839,-6.189,-6.1913,-6.1967,-6.1997,-6.2038,-6.2074,-6.2063,-6.2145,-6.2136,-6.2164,-6.2163,-6.218,-6.2179,-6.2238,-6.2194,-6.2194,-6.2194,-6.2194,0,-6.143,-6.1484,-6.1563,-6.1632,-6.1654,-6.1691,-6.1751,-6.1792,-6.1846,-6.1867,-6.1906,-6.1928,-6.1979,-6.1969,-6.2041,-6.2017,-6.2044,-6.2066,-6.2069,-6.2077,-6.2064,-6.2095,-6.2145,-6.2153,-6.2084,-6.2083,-6.2082,0,-6.1379,-6.147,-6.1509,-6.1581,-6.1629,-6.1659,-6.1701,-6.1747,-6.1779,-6.1823,-6.1856,-6.1904,-6.1904,-6.1924,-6.1954,-6.199,-6.2021,-6.1986,-6.2048,-6.205,-6.2038,-6.2083,-6.2082,-6.2129,-6.2071,-6.2072,-6.2073,0,-6.1344,-6.1441,-6.145,-6.1485,-6.1553,-6.1591,-6.1638,-6.1696,-6.1724,-6.1769,-6.1812,-6.1876,-6.1881,-6.1912,-6.1933,-6.1962,-6.2001,-6.1961,-6.1963,-6.197,-6.2067,-6.2067,-6.2074,-6.2009,-6.201,-6.2011,-6.2064,0,-6.134,-6.1389,-6.1417,-6.1488,-6.1523,-6.1568,-6.1613,-6.1644,-6.1664,-6.1695,-6.1754,-6.1796,-6.185,-6.1867,-6.1883,-6.1937,-6.1934,-6.1936,-6.1928,-6.1957,-6.1976,-6.1983,-6.1898,-6.1898,-6.1898,-6.1898,0,0,-6.1279,-6.1351,-6.1388,-6.1436,-6.1469,-6.1497,-6.1542,-6.1575,-6.1641,-6.1663,-6.1659,-6.1756,-6.1789,-6.1856,-6.1868,-6.1887,-6.1901,-6.1888,-6.1942,-6.1947,-6.1952,-6.1971,-6.1978,-6.1898,-6.1898,-6.1898,-6.1898,0,-6.1288,-6.1326,-6.1369,-6.1408,-6.1465,-6.1496,-6.1506,-6.1565,-6.1587,-6.1643,-6.1662,-6.1701,-6.1774,-6.1809,-6.1836,-6.1882,-6.1893,-6.1894,-6.1907,-6.1941,-6.1946,-6.195,-6.1969,-6.1976,-6.1898,-6.1898,-6.1898,0,-6.1263,-6.1309,-6.1334,-6.1408,-6.1443,-6.1489,-6.1494,-6.1539,-6.1573,-6.1595,-6.165,-6.1678,-6.1725,-6.1781,-6.1806,-6.1803,-6.1883,-6.1862,-6.1863,-6.1867,-6.1902,-6.1907,-6.1912,-6.1846,-6.1846,-6.1846,0,0,-6.1263,-6.1308,-6.1368,-6.1412,-6.1434,-6.1479,-6.1506,-6.1528,-6.1572,-6.1589,-6.1626,-6.1666,-6.171,-6.1737,-6.1779,-6.1832,-6.1846,-6.1854,-6.1857,-6.1859,-6.1863,-6.1898,-6.1904,-6.1844,-6.1844,-6.1844,0,0,-6.1262,-6.1336,-6.1348,-6.1404,-6.1447,-6.1507,-6.1531,-6.1546,-6.1589,-6.1588,-6.1622,-6.1634,-6.1686,-6.1711,-6.1691,-6.1777,-6.1768,-6.1774,-6.1759,-6.1762,-6.1765,-6.1758,-6.1698,0,0,0,0,0,-6.1293,-6.1328,-6.1338,-6.1354,-6.1443,-6.1502,-6.1513,-6.1545,-6.1541,-6.156,-6.1593,-6.1601,-6.1708,-6.1691,-6.1704,-6.1727,-6.1829,-6.1831,-6.1834,-6.1827,-6.1831,-6.1833,0,0,0,0,0,0,-6.1299,-6.1318,-6.1337,-6.1398,-6.1418,-6.1501,-6.1501,-6.151,-6.1539,-6.1541,-6.1595,-6.1603,-6.1629,-6.1686,-6.1698,-6.1718,-6.1694,-6.183,-6.1832,-6.1834,-6.1828,-6.1831,-6.1833,0,0,0,0,0,-6.1305,-6.132,-6.1455,-6.1397,-6.1415,-6.1466,-6.15,-6.1508,-6.153,-6.158,-6.1588,-6.1552,-6.1628,-6.164,-6.1693,-6.1712,-6.1686,-6.169,-6.1831,-6.1833,-6.1835,-6.183,0,0,0,0,0,0,-6.1309,-6.1327,-6.1459,-6.1466,-6.1386,-6.1462,-6.1475,-6.1505,-6.1568,-6.1577,-6.1538,-6.1538,-6.1629,-6.1638,-6.1647,-6.1709,-6.168,-6.1684,-6.1687,-6.1833,-6.1834,-6.1835,0,0,0,0,0,0,-6.1319,-6.1332,-6.1463,-6.1447,-6.1452,-6.1458,-6.1469,-6.1517,-6.1568,-6.1522,-6.1524,-6.1537,-6.1614,-6.1636,-6.1643,-6.1716,-6.1675,-6.1679,-6.1682,-6.1684,-6.1834,-6.1835,0,0,0,0,0,0,-6.1325,-6.1336,-6.1446,-6.1449,-6.1454,-6.1529,-6.15,-6.1588,-6.1558,-6.1519,-6.1556,-6.1555,-6.1612,-6.162,-6.1641,-6.171,-6.1714,-6.1675,-6.1678,-6.168,-6.1681,0,0,0,0,0,0,0,-6.133,-6.1246,-6.1421,-6.1451,-6.1455,-6.1526,-6.1528,-6.1529,-6.1558,-6.1557,-6.1556,-6.1556,-6.1651,-6.1656,-6.166,-6.1706,0,0,-6.1674,-6.1676,0,0,0,0,0,0,0,0,-6.1241,-6.1245,-6.1421,-6.1423,-6.1424,-6.1526,-6.1528,-6.1529,-6.1558,-6.1557,-6.1557,-6.1556,-6.1652,-6.1656,-6.166,0,0,0,0,0,0,0,0,0,0,0,0,0,0,0,-6.1422,-6.1423,0,-6.1526,-6.1527,-6.1529,-6.1558,-6.1557,-6.1557,-6.1556,-6.1653,-6.1656,-6.1659,0,0,0,0,0,0,0,0,0,0,0,0,0,0,0,0,0,0,0,0,0,0,0,0,0,0,0,0,0,0,0,0,0,0,0,0,0,0,0,0,0,0,0,0,0,0,0,0,0,0,0,0,0,0,0,0,0,0,0,0,0,0,0,0,0,0,0,0,0]}]]]